Regional Weather Roundup
Issued by NWS Upton, NY

Current Version | Previous Version | Graphics & Text | Print | Product List | Glossary Off
Versions: 1 2 3 4 5 6 7 8 9 10 11 12 13 14 15 16 17 18 19 20 21 22 23 24 25 26 27 28 29 30 31 32 33 34 35 36 37 38 39 40 41 42 43 44 45 46 47 48 49 50

000
ASUS41 KOKX 280208
RWROKX

REGIONAL WEATHER ROUNDUP
NATIONAL WEATHER SERVICE NEW YORK NY
1000 PM EDT MON JUL 27 2015

NOTE: "FAIR" INDICATES FEW OR NO CLOUDS BELOW 12,000 FEET WITH NO
SIGNIFICANT WEATHER AND/OR OBSTRUCTIONS TO VISIBILITY.

NYZ071-072-176-178-NJZ106-104-280300-
NEW YORK CITY METRO AREA


CITY           SKY/WX    TMP DP  RH WIND       PRES   REMARKS
CENTRAL PARK   MOCLDY    79  66  64 CALM      30.04R
LAGUARDIA APRT MOCLDY    79  68  69 S8        30.01R
KENNEDY INTL   MOCLDY    77  70  79 S13       30.02R
NEWARK/LIBERTY MOCLDY    78  69  73 S6        30.01R
BRNX BOT. GARD   N/A     75  66  73 CALM      30.01R
TETERBORO      CLOUDY    79  67  66 SE8       30.00R
$$

NYZ177-179-078>081-280300-
LONG ISLAND NEW YORK

CITY           SKY/WX    TMP DP  RH WIND       PRES   REMARKS
FARMINGDALE    PTCLDY    76  69  79 SW7       30.03R
ISLIP          PTCLDY    75  70  84 SW7       30.01R
SHIRLEY        PTCLDY    75  70  84 S5        30.04R
WESTHAMPTON    CLEAR     74  72  93 S5        30.05R
MONTAUK POINT    N/A     75  72  90 S6        30.05R
$$

NYZ052-065-067-280300-
HUDSON VALLEY

CITY           SKY/WX    TMP DP  RH WIND       PRES   REMARKS
WHITE PLAINS   PTCLDY    74  66  76 SE5       30.02R
NEWBURGH       CLEAR     72  68  88 CALM      30.02R
MONTGOMERY     CLEAR     71  69  93 CALM      30.01R
POUGHKEEPSIE   CLEAR     76  69  79 SE5       30.00R
ALBANY         MOCLDY    80  68  66 CALM      29.99R
$$

NJZ001-105-106-008-010-013-015-019>022-104-280300-
NEW JERSEY

CITY           SKY/WX    TMP DP  RH WIND       PRES   REMARKS
NEWARK/LIBERTY MOCLDY    78  69  73 S6        30.01R
TETERBORO      CLOUDY    79  67  66 SE8       30.00R
CALDWELL       PTCLDY    79  68  69 CALM      30.02R
MORRISTOWN     PTCLDY    79  72  78 CALM      30.02R
SOMERVILLE     PTCLDY    76  69  79 S3        29.99R
SUSSEX         PTCLDY    75  69  81 SW3       30.02R
ANDOVER          N/A     73  68  84 CALM      30.03R
TRENTON        CLEAR     77  70  79 S8        30.01R
MILLVILLE      MOCLDY    77  73  87 CALM      30.02R
ATLANTIC CITY  CLOUDY    77  70  79 S6        30.03R
WRIGHTSTOWN    CLOUDY    73  69  87 S7        29.99S
TOMS RIVER     PTCLDY    72  70  94 CALM      30.04R
BELMAR         PTCLDY    73  66  78 S5        30.02S
$$

PAZ047>061-062-071-280300-
EASTERN PENNSYLVANIA

CITY           SKY/WX    TMP DP  RH WIND       PRES   REMARKS
PHILADELPHIA   MOCLDY    79  70  74 S6        30.02R
ALLENTOWN      MOCLDY    79  70  74 S3        30.01R
SCRANTON       CLEAR     72  65  78 SE3       30.04R
$$

CTZ002-004>006-009-010-012-RIZ004-006-007-MAZ004-011-015-280300-
SOUTHERN NEW ENGLAND
 IN CT

CITY           SKY/WX    TMP DP  RH WIND       PRES   REMARKS
BRADLEY INTL   MOCLDY    77  66  68 S7        30.01R
HARTFORD       PTCLDY    76  69  79 S6        30.01R
DANBURY        PTCLDY    74  65  73 S3        30.04R
WTRBRY/OXFORD  PTCLDY    72  64  78 S3        30.07R
BRIDGEPORT     PTCLDY    76  71  85 S5        30.02R
MERIDEN        PTCLDY    75  67  76 CALM      30.03R
NEW HAVEN      MOCLDY    74  70  87 S3        30.03R
CHESTER        FAIR      73  70  88 SW6       30.04S
GROTON         MOCLDY    71  69  93 S3        30.03R
WILLIMANTIC    PTCLDY    75  68  78 S3        30.03R

 IN RI

CITY           SKY/WX    TMP DP  RH WIND       PRES   REMARKS
PROVIDENCE     PTCLDY    72  69  90 S6        30.04R
BLOCK ISLAND   MOCLDY    72  72 100 SW9       30.04R
WESTERLY       MOCLDY    73  69  87 SW5       30.04R

 IN MA

CITY           SKY/WX    TMP DP  RH WIND       PRES   REMARKS
BOSTON         PTCLDY    73  67  81 S8        30.02R
WORCESTER      PTCLDY    69  65  86 SW9       30.05R
WESTFIELD      MOCLDY    69  68  96 CALM      30.01R FOG
PROVINCETOWN   PTCLDY    72  63  73 S10       30.03S
NANTUCKET      PTCLDY    68  66  93 S5        30.05R
$$

ANZ330-335-338-340-345-350-353-355-280300-
COASTAL MARINE OBSERVATIONS


STATION/POSITION TIME  SKY/WX   TEMP    WIND        PRES    VSBY  WAVE
                                AIR SEA DIR/SP/G                  HT/PER
                 (UTC)          (F)     (DEG/KT/KT) (MB)    (MI)  (FT/S)
NY HARB ENTRANCE 0150            76 75  220/ 10/ 12 1016.2          2/11
4S FIRE IS       NOT AVBL
20S FIRE ISLAND  0150            74 71  200/  6/  6 1016.4          2/11
GREAT SOUTH BAY  0115            76 80  240/ 10/ 12   N/A
23SW MTP         0150            74 74  210/  6/  8 1016.8          2/11
HUDSON CANYON    NOT AVBL
KINGS POINT      0100            76 71  210/ 10/ 12 1015.3
CENTRAL LI SOUND NOT AVBL
EASTERN LI SOUND 0100            71 69  170/  8/ 10   N/A
ROBBINS REEF     0100            76     160/  9/ 10 1014.7
$$


>>>>>>>>>>>>>>>>>>>>>>>>>>>> KEY <<<<<<<<<<<<<<<<<<<<<<<<<<<
>                                                          <
>     SKY/WX - SKY CONDITION/PRESENT WEATHER               <
>     TMP    - TEMPERATURE IN FAHRENHEIT                   <
>     DP     - DEWPOINT IN FAHRENHEIT                      <
>     RH     - RELATIVE HUMIDITY IN PERCENT                <
>     WIND   - DIRECTION AND SPEED IN MPH                  <
>     PRES   - MEAN SEA LEVEL PRESSURE IN INCHES OF HG     <
>     WCI    - WIND CHILL INDEX                            <
>     VSB    - VISIBILITY IN MILES                         <
>     HX     - HEAT INDEX                                  <
>     TC     - TEMPERATURE IN CELSIUS                      <
>     VRB    - VARIABLE WIND DIRECTION                     <
>                                                          <
>>>>>>>>>>>>>>>>>>>>>>>>>>>> KEY <<<<<<<<<<<<<<<<<<<<<<<<<<<





USA.gov is the U.S. government's official web portal to all federal, state and local government web resources and services.